Location: Miss�
(46.9484°N, 0.1922°W)
Time: 03:27:23
(UTC+00:00)

ARGOS - Pass Details

Date: 02 March 2021
Orbit: 819 x 835 km, 98.4° (Epoch: 16 April)

Event Time Altitude Azimuth Distance (km) Brightness Sun altitude
Rises 18:08:36 0° 142° (SE) 3,369 6.0 -4.3°
Reaches altitude 10° 18:11:03 10° 135° (SE) 2,441 5.2 -4.7°
Maximum altitude 18:16:05 41° 67° (ENE) 1,200 3.6 -5.6°
Drops below altitude 10° 18:21:09 10° 359° (N) 2,459 5.6 -6.5°
Sets 18:23:37 0° 352° (N) 3,397 6.4 -6.9°
